"Pseudo-MPEC" for C0R25U2

Created 2019 Jun 18 18:07:19 UT using Find_Orb

Click here for an explanation of pseudo-MPECs

 
 Astrometry: 
     C0R25U2  C2019 06 06.43674 22 33 12.92 -05 13 04.4    ~66Bq 20.9 GVNEOCPG96
     C0R25U2  C2019 06 06.44253 22 33 15.71 -05 12 48.1    ~66Bq 21.4 GVNEOCPG96
     C0R25U2  C2019 06 06.44833 22 33 18.53 -05 12 32.5    ~66Bq 20.7 GVNEOCPG96
     C0R25U2  C2019 06 06.45413 22 33 21.37 -05 12 16.5    ~66Bq 20.7 GVNEOCPG96
     C0R25U2  C2019 06 06.46367 22 33 25.92 -05 11 50.0    ~66Jb 20.3 GVNEOCPI52
     C0R25U2  C2019 06 06.46492 22 33 26.52 -05 11 46.1    ~66Jb 20.8 GVNEOCPI52
     C0R25U2  C2019 06 06.46616 22 33 27.20 -05 11 42.8    ~66Jb 19.9 GVNEOCPI52
     C0R25U2 KC2019 06 07mi%bXu0x8W3=+UAstrometryL3b7'redacted;jF1clickq$AuRBJ04
     C0R25U2 KC2019 06 07[Ee:.C5ruNOckZra`,here#Q3mn4Yel:EvODaDR^YJ4aforSw-3oJ04
     C0R25U2 KC2019 06 07HNUL%C?MWxlIexplanationS`HO6mk4yOm$c/W:EddM?6R0Zsbw;J04
     C0R25U2  C2019 06 07.40676 22 41 18.97 -04 26 55.6    ~67A7 21.2 GVNEOCPI52
     C0R25U2  C2019 06 07.40801 22 41 19.58 -04 26 52.7    ~67A7 21.1 GVNEOCPI52
     C0R25U2  C2019 06 07.40925 22 41 20.19 -04 26 46.1    ~67A7 21.3 GVNEOCPI52
     C0R25U2  C2019 06 07.41050 22 41 20.84 -04 26 43.6    ~67A7       VNEOCPI52
     C0R25U2  C2019 06 08.39066 22 49 53.75 -03 37 35.6    ~691b 20.7 GVNEOCPI52
     C0R25U2  C2019 06 08.39191 22 49 54.45 -03 37 32.0    ~691b 20.4 GVNEOCPI52
     C0R25U2  C2019 06 08.39316 22 49 55.08 -03 37 28.7    ~691b 20.2 GVNEOCPI52
     C0R25U2  C2019 06 08.39441 22 49 55.70 -03 37 24.2    ~691b 20.3 GVNEOCPI52
     C0R25U2  C2019 06 09.38864 22 58 58.87 -02 44 57.4    ~699q 20.9 GVNEOCPI52
     C0R25U2  C2019 06 09.38989 22 58 59.59 -02 44 53.8    ~699q       VNEOCPI52
     C0R25U2  C2019 06 09.39114 22 59 00.27 -02 44 49.8    ~699q       VNEOCPI52
     C0R25U2  C2019 06 09.39239 22 59 00.99 -02 44 44.7    ~699q       VNEOCPI52
     C0R25U2  C2019 06 11.41753 23 18 40.07 -00 49 52.2    ~6BAM       VNEOCPI52
     C0R25U2  C2019 06 11.41930 23 18 41.15 -00 49 47.1    ~6BAM       VNEOCPI52
     C0R25U2  C2019 06 11.42107 23 18 42.14 -00 49 40.2    ~6BAM       VNEOCPI52
     C0R25U2  C2019 06 12.41240 23 28 55.28 +00 10 15.7    ~6CAM 21.0 GVNEOCPI52
     C0R25U2  C2019 06 12.41546 23 28 57.19 +00 10 28.0    ~6CAM 20.7 GVNEOCPI52
     C0R25U2  C2019 06 12.41852 23 28 59.08 +00 10 38.9    ~6CAM 20.5 GVNEOCPI52
     C0R25U2  C2019 06 13.43700 23 39 52.97 +01 14 31.8    ~6DAq 21.0 GVNEOCPI52
     C0R25U2  C2019 06 13.43825 23 39 53.76 +01 14 37.1    ~6DAq 20.6 GVNEOCPI52
     C0R25U2  C2019 06 13.43950 23 39 54.60 +01 14 42.2    ~6DAq 21.1 GVNEOCPI52
     C0R25U2  C2019 06 13.44075 23 39 55.39 +01 14 45.8    ~6DAq 20.5 GVNEOCPI52
     C0R25U2  C2019 06 15.44428 00 02 29.00 +03 26 04.8    ~6FBM       VNEOCPI52
     C0R25U2  C2019 06 15.44595 00 02 30.21 +03 26 12.7    ~6FBM 20.5 GVNEOCPI52
     C0R25U2  C2019 06 15.44761 00 02 31.41 +03 26 20.3    ~6FBM 20.5 GVNEOCPI52
     C0R25U2  C2019 06 15.44928 00 02 32.47 +03 26 26.3    ~6FBM 20.9 GVNEOCPI52

Station data:
(G96) Mt. Lemmon Survey  (N32.442754 W110.788720)  US/Arizona.  Observers T.
   A. Pruyne, B. M. Africano, E. J. Christensen, G. A. Farneth, D. C. Fuls,
   A. R. Gibbs, A. D. Grauer, H. Groeller, J. A. Johnson, R. A. Kowalski, S.
   M. Larson, G. J. Leonard, R. L. Seaman, F. C. Shelly. 1.5-m reflector +
   10K CCD.
(I52) Steward Observatory, Mt. Lemmon Station  (N32.442547 W110.788920)
   US/Arizona.  Observers T. A. Pruyne, B. M. Africano, E. J. Christensen, G.
   A. Farneth, D. C. Fuls, A. R. Gibbs, A. D. Grauer, H. Groeller, J. A.
   Johnson, R. A. Kowalski, S. M. Larson, G. J. Leonard, R. L. Seaman, F. C.
   Shelly. 1.0-m reflector + CCD.
(J04) ESA Optical Ground Station, Tenerife  (N28.300924 W16.511830)  Canary
   Islands (Spain).  Observer D. Abreu. Measurers M. Micheli, D. Koschny, E.
   Schwab, M. Busch, A. Knöfel. 1.0-m f/4.4 reflector + CCD.

Orbital elements:  C0R25U2
   Perihelion 2019 Aug 4.266418 +/- 0.447 TT =  6:23:38 (JD 2458699.766418)
Epoch 2019 Jun 15.0 TT = JDT 2458649.5   Earth MOID: 0.0114   Ve: 0.0289
M 337.02945978 +/- 1.5              Ma: 0.0126                AutoNEOCP
n   0.45697587 +/- 0.0275           Peri.  268.38931 +/- 0.7
a   1.66932359 +/- 0.0671           Node   121.13456 +/- 0.35
e   0.7169189 +/- 0.011             Incl.    3.02501 +/- 0.023
P   2.16/787.77d           H 20.6   G  0.15   U 10.3  
q 0.47255393 +/- 0.000714    Q 2.86609326 +/- 0.152
From 36 observations 2019 June 6-15; mean residual 0".58
Residuals in arcseconds: 
190606 G96  .10+  .22+    190607 I52  .74-  2.2+    190611 I52  .72-  .30+    
190606 G96  .08-  .46+    190607 I52  .49-  1.0+    190612 I52  .06-  .36-    
190606 G96  .11+  .03-    190608 I52  .14+  .12+    190612 I52  .10-  .62+    
190606 G96  .61+  .13-    190608 I52  .70+  .13-    190612 I52  .43-  .20+    
190606 I52  .39-  .13-    190608 I52  .21+  .68-    190613 I52  .28+  .51-    
190606 I52  .46-  .29+    190608 I52  .42-  .03-    190613 I52  .01-  .00     
190606 I52  .74+  .15+    190609 I52  .11+  .87-    190613 I52  .45+  .31+    
190607 J04  .09-  .03-    190609 I52  .53+  1.3-    190613 I52  .15+  .88-    
190607 J04  .54-  .08+    190609 I52  .35+  1.4-    190615 I52  .82-  .95-    
190607 J04  .09-  .06-    190609 I52  .77+  .32-    190615 I52  .04+  .23+    
190607 I52  .12-  .05-    190611 I52  .15+  .89+    190615 I52  .85+  1.1+    
190607 I52  .47-  .81-    190611 I52  .39+  .31-    190615 I52  .54-  .41+    

Ephemerides (geocentric):
Date (UTC) HH   RA              Dec         delta   r     elong  mag " sig PA
---- -- -- --  -------------   -----------  ------ ------ -----  --- ---- ---
2019 06 18 18  00 42 23.560   +07 11 24.02  .32628 .98013  74.4 21.1 .751  27
2019 06 18 19  00 42 54.739   +07 14 14.37  .32623 .97958  74.3 21.1 .769  28
2019 06 18 20  00 43 25.937   +07 17 04.65  .32618 .97902  74.2 21.1 .788  29
2019 06 18 21  00 43 57.154   +07 19 54.86  .32613 .97847  74.1 21.1 .806  30
2019 06 18 22  00 44 28.388   +07 22 45.00  .32608 .97791  74.0 21.2 .826  31
2019 06 18 23  00 44 59.641   +07 25 35.07  .32604 .97736  73.9 21.2 .845  31
2019 06 19 00  00 45 30.911   +07 28 25.07  .32599 .97680  73.8 21.2 .865  32
2019 06 19 01  00 46 02.198   +07 31 14.98  .32595 .97625  73.7 21.2 .885  33
2019 06 19 02  00 46 33.503   +07 34 04.82  .32591 .97570  73.6 21.2 .905  33
2019 06 19 03  00 47 04.824   +07 36 54.57  .32587 .97514  73.5 21.2 .926  34
2019 06 19 04  00 47 36.162   +07 39 44.23  .32584 .97459  73.4 21.2 .947  35
2019 06 19 05  00 48 07.516   +07 42 33.81  .32580 .97403  73.3 21.2 .968  35
2019 06 19 06  00 48 38.887   +07 45 23.29  .32577 .97348  73.2 21.2 .990  36
2019 06 19 07  00 49 10.274   +07 48 12.68  .32574 .97292  73.1 21.2 1.01  36
2019 06 19 08  00 49 41.676   +07 51 01.98  .32571 .97237  73.0 21.2 1.03  37
2019 06 19 09  00 50 13.093   +07 53 51.17  .32568 .97181  73.0 21.2 1.06  38
2019 06 19 10  00 50 44.526   +07 56 40.27  .32565 .97126  72.9 21.2 1.08  38
2019 06 19 11  00 51 15.974   +07 59 29.26  .32563 .97070  72.8 21.2 1.10  39
2019 06 19 12  00 51 47.436   +08 02 18.14  .32561 .97015  72.7 21.2 1.12  39
2019 06 19 13  00 52 18.912   +08 05 06.91  .32559 .96959  72.6 21.2 1.15  40
2019 06 19 14  00 52 50.403   +08 07 55.57  .32557 .96904  72.5 21.2 1.17  40
2019 06 19 15  00 53 21.908   +08 10 44.12  .32555 .96848  72.4 21.2 1.19  40
2019 06 19 16  00 53 53.426   +08 13 32.55  .32553 .96792  72.3 21.2 1.22  41
2019 06 19 17  00 54 24.958   +08 16 20.86  .32552 .96737  72.2 21.2 1.24  41
2019 06 19 18  00 54 56.503   +08 19 09.05  .32551 .96681  72.1 21.2 1.27  42
2019 06 19 19  00 55 28.060   +08 21 57.11  .32550 .96626  72.0 21.2 1.29  42
2019 06 19 20  00 55 59.630   +08 24 45.05  .32549 .96570  71.9 21.2 1.31  42
2019 06 19 21  00 56 31.213   +08 27 32.85  .32548 .96514  71.8 21.2 1.34  43
2019 06 19 22  00 57 02.807   +08 30 20.53  .32548 .96459  71.7 21.2 1.36  43
2019 06 19 23  00 57 34.414   +08 33 08.06  .32547 .96403  71.6 21.2 1.39  43
2019 06 20 00  00 58 06.032   +08 35 55.46  .32547 .96348  71.5 21.2 1.41  44
2019 06 20 01  00 58 37.661   +08 38 42.72  .32547 .96292  71.4 21.2 1.44  44
2019 06 20 02  00 59 09.302   +08 41 29.84  .32547 .96236  71.3 21.2 1.46  44
2019 06 20 03  00 59 40.953   +08 44 16.81  .32547 .96181  71.2 21.2 1.49  45
2019 06 20 04  01 00 12.614   +08 47 03.63  .32548 .96125  71.1 21.2 1.52  45
2019 06 20 05  01 00 44.286   +08 49 50.31  .32549 .96069  71.0 21.2 1.54  45
2019 06 20 06  01 01 15.968   +08 52 36.83  .32550 .96013  70.9 21.2 1.57  46
2019 06 20 07  01 01 47.659   +08 55 23.19  .32551 .95958  70.8 21.2 1.59  46
2019 06 20 08  01 02 19.360   +08 58 09.40  .32552 .95902  70.7 21.2 1.62  46
2019 06 20 09  01 02 51.071   +09 00 55.45  .32553 .95846  70.6 21.2 1.65  46
2019 06 20 10  01 03 22.790   +09 03 41.33  .32555 .95791  70.5 21.2 1.67  47
2019 06 20 11  01 03 54.517   +09 06 27.05  .32556 .95735  70.4 21.3 1.70  47
2019 06 20 12  01 04 26.254   +09 09 12.60  .32558 .95679  70.3 21.3 1.73  47
2019 06 20 13  01 04 57.998   +09 11 57.98  .32560 .95623  70.2 21.3 1.76  47
2019 06 20 14  01 05 29.750   +09 14 43.19  .32563 .95568  70.1 21.3 1.78  48
2019 06 20 15  01 06 01.510   +09 17 28.22  .32565 .95512  70.0 21.3 1.81  48
2019 06 20 16  01 06 33.277   +09 20 13.08  .32568 .95456  69.9 21.3 1.84  48
2019 06 20 17  01 07 05.051   +09 22 57.75  .32570 .95400  69.8 21.3 1.87  48